Regional Weather Roundup
Issued by NWS

Home | Current Version | Previous Version | Graphics & Text | Print | Product List | Glossary On
Versions: 1 2 3 4 5 6 7 8 9 10 11 12 13 14 15 16 17 18 19 20 21 22 23 24 25 26 27 28 29 30 31 32 33 34 35 36 37 38 39 40 41 42 43 44 45 46 47 48 49 50
000
ASUS43 KBIS 030210
RWRND

NORTH DAKOTA REGIONAL WEATHER ROUNDUP
NATIONAL WEATHER SERVICE BISMARCK ND
800 PM CST FRI DEC 02 2016

NOTE: "FAIR" INDICATES FEW OR NO CLOUDS BELOW 12,000 FEET WITH NO
SIGNIFICANT WEATHER AND/OR OBSTRUCTIONS TO VISIBILITY.


NDZ001>003-009>011-017-030300-
NORTHWEST NORTH DAKOTA

CITY           SKY/WX    TMP DP  RH WIND       PRES   REMARKS
WILLISTON      CLEAR     27  24  89 S5        30.09F
MINOT          CLOUDY    28  25  88 SE3       30.13F
MINOT AFB      CLOUDY    26  24  89 S9        30.13F WCI  17
$$

NDZ018>021-031>035-040>046-030300-
SOUTHWEST NORTH DAKOTA

CITY           SKY/WX    TMP DP  RH WIND       PRES   REMARKS
BISMARCK       PTCLDY    22  19  89 SE9       30.21F WCI  12
DICKINSON      CLEAR     21  19  92 S10       30.10F WCI  10
GARRISON         N/A     28  25  88 S12       30.14F WCI  18
HETTINGER ARPT CLEAR     23  21  92 S7        30.16S WCI  15
$$

NDZ004>008-012>016-024-026-027-054-030300-
NORTHEAST NORTH DAKOTA

CITY           SKY/WX    TMP DP  RH WIND       PRES   REMARKS
GRAND FORKS    CLOUDY    31  23  72 SW5       30.26F
GRND FRKS AFB  CLOUDY    30  22  70 W3        30.27S
DEVILS LAKE    FLURRIES  26  20  77 S9        30.23F WCI  17
$$

NDZ022-023-025-028>030-036>039-047>053-030300-
SOUTHEAST NORTH DAKOTA

CITY           SKY/WX    TMP DP  RH WIND       PRES   REMARKS
FARGO          CLOUDY    29  19  66 CALM      30.30S
JAMESTOWN      CLOUDY    24  17  74 SW10      30.25F WCI  14
$$





USA.gov is the U.S. government's official web portal to all federal, state and local government web resources and services.